Location: Cold Norton
(51.6667°N, 0.6667°E)
Time: 06:13:43
(UTC+00:00)

Cosmos 676 Rocket - Pass Details

Date: 18 November 2025
Orbit: 750 x 779 km, 74.0° (Epoch: 10 December)

Event Time Altitude Azimuth Distance (km) Brightness Sun altitude
Rises 17:57:54 0° 180° (S) 3,249 7.4 -17.4°
Reaches altitude 10° 18:00:22 10° 174° (S) 2,325 6.5 -17.8°
Maximum altitude 18:05:18 41° 105° (ESE) 1,110 4.4 -18.6°
Enters shadow 18:06:42 34° 68° (ENE) 1,254 4.6 -18.8°
